Tracking 27428 objects as of 31-May-2023
HD Live streaming from Space Station
objects crossing your sky now

HOTBIRD 13F

Track HOTBIRD 13F now!
HOTBIRD 13F is classified as:


NORAD ID: 54048
Int'l Code: 2022-134A
Perigee: 35,786.6 km
Apogee: 35,799.9 km
Inclination: 0.1 °
Period: 1,436.1 minutes
Semi major axis: 42164 km
RCS: Unknown
Launch date: October 15, 2022
Source: ()
Launch site: AIR FORCE EASTERN TEST RANGE (AFETR)
Your satellite tracking list
Your tracking list is empty




NASA's NSSDC Master Catalog

Two Line Element Set (TLE):
1 54048U 22134A   23150.84615748  .00000019  00000-0  00000-0 0  9997
2 54048   0.0709 295.6361 0001575  38.0717 219.4960  1.00273614  2305
Source of the keplerian elements: AFSPC